Regional Weather Roundup
Issued by NWS

Home | Current Version | Previous Version | Text Only | Print | Product List | Glossary On
Versions: 1 2 3 4 5 6 7 8 9 10 11 12 13 14 15 16 17 18 19 20 21 22 23 24 25 26 27 28 29 30 31 32 33 34 35 36 37 38 39 40 41 42 43 44 45 46 47 48 49 50
000
ASHW40 PHFO 250643
RWRHI

WEATHER ROUNDUP FOR HAWAII
NATIONAL WEATHER SERVICE HONOLULU HI
800 PM HST SAT FEB 24 2018

THIS IS AN AUTOMATED REPORT THAT HAS NOT BEEN QUALITY CONTROLLED.

NOTE..."FAIR" INDICATES FEW OR NO CLOUDS BELOW 12,000 FEET WITH NO
SIGNIFICANT WEATHER AND/OR OBSTRUCTIONS TO VISIBILITY.

* - THESE SITES REPORT LIMITED FIELDS
# - BUOY DATA PROVIDED BY PACIFIC ISLANDS OCEAN OBSERVING SYSTEM.

HIZ001>004-250700-
KAUAI-NIIHAU-

CITY           SKY/WX    TMP DP  RH WIND       PRES   REMARKS
LIHUE APT      CLOUDY    74  73  97 SE8       30.05R
PORT ALLEN*      N/A     73 N/A N/A E12         N/A
POIPU*           N/A     73 N/A N/A NE2         N/A
PRINCEVILLE*     N/A     72 N/A N/A SE10G18     N/A
KOKOLE POINT*  NOT AVBL
MOLOAA DAIRY*    N/A     73  72  94 E12G18      N/A
WAIMEA HTS*      N/A     72  68  88 NE3         N/A
PUU OPAE*        N/A     66  64  94 E3          N/A
PUU LUA*       NOT AVBL
MAKAHA RIDGE*    N/A     66  64  94 S3          N/A
$$

HIZ005>011-250700-
OAHU-

CITY           SKY/WX    TMP DP  RH WIND       PRES   REMARKS
HONOLULU       MOCLDY    79  67  66 E12       30.04R
KALAELOA       CLOUDY    75  70  83 E5        30.07R
KANEOHE MCB    CLOUDY    75  70  84 E15G24    30.04R
WHEELER FIELD  CLOUDY    72  70  95 CALM      30.09R
BELLOWS*         N/A    N/A N/A N/A E18G25      N/A
KAHUKU*          N/A    N/A N/A N/A NE10G23     N/A
WHEELER*         N/A    N/A N/A N/A SE2         N/A
WAIANAE HARBOR   N/A    N/A N/A N/A E6          N/A
DILLINGHAM*    NOT AVBL
KAHUKU TRN*      N/A     70  68  94 W7G25       N/A
KAWAILOA*        N/A     70  66  88 E6G13       N/A
KII*             N/A     73  70  88 E22G32      N/A
MAKUA RANGE*     N/A     70  63  78 NW1         N/A
OAHU FOREST NW   N/A     68  64  88 E16G25      N/A
SCHOFIELD BRK*   N/A     79  75  89 NE1         N/A
SCHOFIELD S*   NOT AVBL
WAIANAE VLY*     N/A     72 N/A N/A NE2         N/A
KUAOKALA*        N/A     70  66  88 E3          N/A
HONOULIUULI*   NOT AVBL
MOKUOLOE IS*   NOT AVBL
PALEHUA*         N/A     64  64 100 E8G16       N/A
WAIAWA PHB*    NOT AVBL
$$

HIZ012>013-250700-
MOLOKAI-

CITY           SKY/WX    TMP DP  RH WIND       PRES   REMARKS
MOLOKAI AIRPT  CLOUDY    75  66  73 NE7       30.04R
KALAUPAPA      NOT AVBL
MAKAPULAPAI*     N/A     73  68  83 E18G33      N/A
MOLOKAI 1*     NOT AVBL
PUU ALII*        N/A     72  69  89 NE3G18      N/A
$$

HIZ016-250700-
KAHOOLAWE-

CITY           SKY/WX    TMP DP  RH WIND       PRES   REMARKS
KAHOOLAWE*     NOT AVBL
HAKIOAWA*        N/A     71  67  87 MISG      30.44R
HONOKANAIA*    NOT AVBL
KANELOA*         N/A     72  66  83 E26G41    30.06F
KEALIALALO*    NOT AVBL
LUA MAKIKA*    NOT AVBL
$$

HIZ014>015-250700-
LANAI-

CITY           SKY/WX    TMP DP  RH WIND       PRES   REMARKS
LANAI CITY     CLOUDY    69  66  90 VRB3      30.09R
LANAI 1*       NOT AVBL
$$

HIZ017>028-250700-
MAUI-

CITY           SKY/WX    TMP DP  RH WIND       PRES   REMARKS
KAHULUI        CLOUDY    73  70  90 SE8       30.01R
KAPALUA-W MAUI NOT AVBL
HANA AIRPORT   LGT RAIN  72  32  23 SE13      30.12R
HANA*            N/A     72 N/A N/A SE6G12      N/A
HALEAKALA SUMM   N/A     43  43 100 E25         N/A
MAALAEA BAY*     N/A     73 N/A N/A N12G18      N/A
HALEAKALA*     NOT AVBL
KAUPO GAP*     NOT AVBL
KULA 1*          N/A     57  51  80 SE8G20      N/A
$$

HIZ023>026-250700-
BIG ISLAND OF HAWAII COAST AND LOWER SLOPES-

CITY           SKY/WX    TMP DP  RH WIND       PRES   REMARKS
KAILUA KONA    CLOUDY    76  70  82 S9        29.99R
HILO           LGT RAIN  69  65  86 W10       30.11R
HONOKAA*         N/A     70 N/A N/A VRB1        N/A
KAWAIHAE MWT*    N/A     77 N/A N/A SE2         N/A
KAWAIHAE*        N/A     77 N/A N/A N3        29.99R
SOUTH POINT*     N/A     66 N/A N/A N26G36      N/A
UPOLU AIRPORT* NOT AVBL
KAMUELA*       CLOUDY    64  57  77 NW3       30.13R
HAKALAU*         N/A     50  50 100 S7G15       N/A
KALOKO-HONOKO*   N/A     73  70  88 E3G9      29.99S
PALI 2*          N/A     61  61 100 S9          N/A
KEALAKOMO*       N/A     72  66  83 N9G15       N/A
KAUPULEHU*       N/A     70  64  83 E7          N/A
KAPAPALA*        N/A     64  63  97 NE5G10      N/A
LOWER KAHUKU*    N/A     59  59 100 VRB3G12     N/A
PUHE CS*         N/A     75  68  78 E2          N/A
PUHO CS*         N/A     72  70  93 NE1         N/A
PTA KEAMUKU*     N/A     63  59  88 E6G12       N/A
WAIKOLOA*        N/A    N/A N/A N/A E7          N/A
$$

HIZ027>028-250700-
BIG ISLAND OF HAWAII INTERIOR AND SUMMMITS-

CITY           SKY/WX    TMP DP  RH WIND       PRES   REMARKS
BRADSHAW FIELD CLOUDY    53  48  82 S17       30.33R
MK VISITOR CEN   N/A     46  43  87 E10         N/A
MAUNA KEA*       N/A     32  32 100 CALM        N/A
MAUNA LOA*       N/A     41  36  81 MISG        N/A
MAUNA LOA 1*   NOT AVBL
PTA KIPUKA*      N/A     61  59  94 NW1G12      N/A
PTA RANGE 17*    N/A     55  48  76 NW21G31     N/A
PTA WEST*        N/A     63  50  63 SE22G33     N/A
NENE CABIN*      N/A     48  48 100 NE8G14      N/A
AHUMOA*          N/A     55  49  81 E3          N/A
PTA PORTABLE*  NOT AVBL
PUU MALI*        N/A     54  52  94 SW5         N/A
$$

HIC003-250700-
NORTHWEST ISLANDS-

CITY           SKY/WX    TMP DP  RH WIND       PRES   REMARKS
MIDWAY ISLAND  PTCLDY    66  61  82 NE10      30.04S
MIDWAY NOS*      N/A     68 N/A N/A MISG      30.03R
FRENCH FRIGATE NOT AVBL
$$

PHZ110>124-180-250700-
BUOY REPORTS

STATION/POSITION TIME  TEMP    WIND        PRES    WAVE   SWELL
                       AIR SEA DIR/SP/G            HT/PER HT/DIR
                 (UTC) (F)     (DEG/KT/KT) (MB)    (FT/S) (FT/D)
BUOY 51001       0620   78 79   40/  8/ 10 1012.4
BUOY 51101       0550   74 74  120/ 14/ 16 1017.0R   8/ 9   8/100
BUOY 51100       NOT AVBL
BUOY 51002       0620   76 78  100/ 16/ 21 1014.7
BUOY 51003       0550   77 77   80/ 17/ 19 1014.5F   7/10   5/ 60
BUOY 51004       0620   76 77   80/ 19/ 25 1017.4
WAIMEA BAY#      NOT AVBL
MOKAPU POINT#    0604      74                N/A    10/10   3/ 70
LANAI#           NOT AVBL
BARBERS PT 2#    NOT AVBL
PAUWELA#         0600      74                N/A    10/10   3/ 90
HILO#            0627      75                N/A    12/10   5/ 90
KANEOHE BAY#     NOT AVBL
KANEOHE BAY 2#   NOT AVBL
HANALEI#         0622      75                N/A     9/ 9   3/ 70
KAHULUI HARBOR   0606   74 78  100/  5/ 12 1016.2
HONOLULU HARBOR  0606   77 75  110/  2/  4 1017.2
PEARL HARBOR#    0600      76                N/A     4/ 7   2/170
KILO NALU        NOT AVBL
HILO HARBOR      0606   68 73  250/ 12/ 15 1019.3
MOKUOLOE         0536   75 76  120/  4/  7 1017.3R
NAWILIWILI       0606   74 77   80/  5/  6 1017.0
WHOTS BUOY       NOT AVBL
BUOY 51028       NOT AVBL
$$

......................KEY........................................
  SKY/WX - SKY CONDITIONS/PRESENT WEATHER
  TMP    - TEMPERATURE IN FAHRENHEIT
  DWPT   - DEWPOINT IN FAHRENHEIT
  RH     - RELATIVE HUMIDITY IN PERCENT
  WIND   - DIRECTION AND SPEED /MPH FOR ISLANDS...KTS FOR BUOYS/
  PRES   - MEAN SEA LEVEL PRESSURE IN INCHES OF HG
  VSB    - VISIBILITY IN MILES
  HX     - HEAT INDEX
  WCI    - WIND CHILL INDEX
  VRB    - VARIABLE WIND DIRECTION
  N/A    - NOT AVAILABLE



USA.gov is the U.S. government's official web portal to all federal, state and local government web resources and services.